"Timestamp","TZ","WindDir_Mean (deg)","WindSpd_Mean (km/h)","WindSpd_Min (km/h)","WindSpd_Max (km/h)","Temp_Mean (deg)","RH_Mean (%)","MSLP_Mean (hPa)","Rain_Acc (mm)","Rain_Intensity (mm/h)","Hail_Acc (hits/cm2)","Hail_Intensity (hits/cm2hr)","Solar_Mean (W/m2)"
2018/06/05 00:00:00.014,n,231,0.72,0.72,1.08,14.3,79,1019.42,0,0,0,0,0.028763
2018/06/05 00:01:00.000,n,237,1.44,1.08,1.8,14.2,79,1019.42,0,0,0,0,0.033989
2018/06/05 00:02:00.000,n,177,1.08,0.36,1.44,14.2,79,1019.42,0,0,0,0,0.035744
2018/06/05 00:03:00.000,n,279,4.32,3.6,5.04,14.2,79.1,1019.42,0,0,0,0,0.030479
2018/06/05 00:04:00.003,n,226,0.72,0.36,1.08,14.2,79.1,1019.42,0,0,0,0,0.028763
2018/06/05 00:05:00.000,n,268,1.08,0.72,1.44,14.2,79.1,1019.42,0,0,0,0,0.026131
2018/06/05 00:06:00.000,n,161,2.88,2.16,2.88,14.2,79.4,1019.42,0,0,0,0,0.028763
2018/06/05 00:07:00.012,n,270,1.44,0.72,1.8,14.2,79.4,1019.42,0,0,0,0,0.027046
2018/06/05 00:08:00.009,n,300,2.16,0.72,2.88,14.2,79.7,1019.42,0,0,0,0,0.028763
2018/06/05 00:09:00.006,n,209,0.72,0.36,0.72,14.2,79.8,1019.42,0,0,0,0,0.028725
2018/06/05 00:10:00.000,n,269,3.24,2.88,3.24,14.2,79.6,1019.42,0,0,0,0,0.034828
2018/06/05 00:11:00.003,n,273,3.6,3.24,3.96,14.2,79.5,1019.42,0,0,0,0,0.028725
2018/06/05 00:12:00.000,n,239,3.6,2.88,4.68,14.2,79.5,1019.32,0,0,0,0,0.034828
2018/06/05 00:13:00.000,n,261,3.6,2.88,5.04,14.1,79.6,1019.32,0,0,0,0,0.032234
2018/06/05 00:14:00.000,n,232,1.44,1.08,1.8,14.1,79.7,1019.32,0,0,0,0,0.033073
2018/06/05 00:15:00.008,n,270,1.08,0.36,1.44,14.1,79.6,1019.32,0,0,0,0,0.031357
2018/06/05 00:16:00.007,n,261,3.6,2.88,4.32,14.1,79.9,1019.32,0,0,0,0,0.028725
2018/06/05 00:17:00.004,n,301,3.6,2.52,3.96,14.1,79.8,1019.32,0,0,0,0,0.033989
2018/06/05 00:18:00.000,n,265,0.72,0.36,1.44,14.1,79.7,1019.22,0,0,0,0,0.026131
2018/06/05 00:19:00.000,n,355,1.08,0.36,1.8,14.1,79.8,1019.22,0,0,0,0,0.027885
2018/06/05 00:20:00.000,n,182,5.4,4.68,5.76,14.1,79.9,1019.22,0,0,0,0,0.02964
2018/06/05 00:21:00.000,n,271,1.44,0.72,1.8,14.1,79.9,1019.22,0,0,0,0,0.026131
2018/06/05 00:22:00.000,n,262,1.08,0.72,1.44,14,79.9,1019.22,0,0,0,0,0.033989
2018/06/05 00:23:00.000,n,261,3.24,2.88,3.6,14,79.9,1019.22,0,0,0,0,0.033073
2018/06/05 00:24:00.008,n,300,3.96,2.52,5.76,14,80.1,1019.22,0,0,0,0,0.030479
2018/06/05 00:25:00.005,n,251,0.36,0,1.08,14,80.1,1019.22,0,0,0,0,0.030479
2018/06/05 00:26:00.002,n,252,0.72,0.36,1.08,14,80,1019.22,0,0,0,0,0.032234
2018/06/05 00:27:00.015,n,269,0.72,0.36,1.8,14,80.1,1019.22,0,0,0,0,0.027008
2018/06/05 00:28:00.000,n,248,3.24,2.52,3.96,14,80.1,1019.22,0,0,0,0,0.026131
2018/06/05 00:29:00.000,n,267,3.96,2.88,4.32,14,80.1,1019.22,0,0,0,0,0.02964
2018/06/05 00:30:00.000,n,188,1.44,0.72,1.8,14,80.1,1019.22,0,0,0,0,0.026131
2018/06/05 00:31:00.004,n,348,1.08,0.36,1.44,13.9,80.1,1019.22,0,0,0,0,0.030479
2018/06/05 00:32:00.002,n,269,1.8,1.44,1.8,13.9,80.3,1019.22,0,0,0,0,0.026131
2018/06/05 00:33:00.000,n,279,3.6,3.24,4.68,13.9,80.6,1019.22,0,0,0,0,0.025291
2018/06/05 00:34:00.012,n,263,1.44,1.08,2.52,13.9,80.3,1019.12,0,0,0,0,0.026131
2018/06/05 00:35:00.008,n,246,3.6,2.88,4.32,13.9,80.2,1019.12,0,0,0,0,0.030479
2018/06/05 00:36:00.006,n,287,2.52,1.8,3.24,13.9,80.3,1019.22,0,0,0,0,0.026131
2018/06/05 00:37:00.000,n,292,3.24,2.52,3.96,13.9,80.3,1019.12,0,0,0,0,0.032234
2018/06/05 00:38:00.000,n,273,2.52,1.8,2.88,13.9,80.3,1019.12,0,0,0,0,0.024376
2018/06/05 00:39:00.000,n,242,3.96,3.6,4.32,13.9,80.3,1019.12,0,0,0,0,0.024376
2018/06/05 00:40:00.000,n,292,5.4,4.68,5.76,13.9,80.4,1019.12,0,0,0,0,0.023499
2018/06/05 00:41:00.008,n,257,3.6,2.88,3.96,13.9,80.4,1019.12,0,0,0,0,0.024376
2018/06/05 00:42:00.005,n,281,5.76,5.04,7.2,13.9,80.3,1019.12,0,0,0,0,0.021782
2018/06/05 00:43:00.002,n,240,2.16,1.8,3.6,13.9,80.3,1019.12,0,0,0,0,0.032234
2018/06/05 00:44:00.000,n,146,1.44,0.72,2.16,13.9,80.5,1019.12,0,0,0,0,0.027885
2018/06/05 00:45:00.012,n,330,1.08,1.08,1.44,13.9,80.5,1019.12,0,0,0,0,0.024376
2018/06/05 00:46:00.000,n,171,1.8,1.44,2.16,13.9,80.5,1019.12,0,0,0,0,0.022659
2018/06/05 00:47:00.000,n,243,3.24,2.52,4.32,13.9,80.5,1019.12,0,0,0,0,0.023499
2018/06/05 00:48:00.003,n,185,1.8,1.44,2.16,13.9,80.4,1019.12,0,0,0,0,0.024376
2018/06/05 00:49:00.002,n,148,1.44,1.08,1.8,13.9,80.6,1019.22,0,0,0,0,0.025291
2018/06/05 00:50:00.000,n,137,2.88,2.52,3.24,13.9,80.7,1019.22,0,0,0,0,0.033951
2018/06/05 00:51:00.000,n,158,2.16,1.44,2.52,13.8,80.7,1019.22,0,0,0,0,0.027008
2018/06/05 00:52:00.008,n,247,2.88,2.16,3.96,13.8,80.7,1019.22,0,0,0,0,0.033112
2018/06/05 00:53:00.006,n,267,3.96,3.6,4.32,13.8,81,1019.22,0,0,0,0,0.028763
2018/06/05 00:54:00.002,n,219,1.08,0.72,1.44,13.8,80.8,1019.22,0,0,0,0,0.026131
2018/06/05 00:55:00.000,n,308,2.88,2.16,4.32,13.8,81,1019.22,0,0,0,0,0.028763
2018/06/05 00:56:00.000,n,275,0.72,0.36,1.8,13.8,80.9,1019.22,0,0,0,0,0.031357
2018/06/05 00:57:00.000,n,130,1.8,1.08,2.88,13.8,80.8,1019.22,0,0,0,0,0.027008
2018/06/05 00:58:00.000,n,237,1.8,1.8,2.16,13.8,80.8,1019.22,0,0,0,0,0.025253
2018/06/05 00:59:00.005,n,154,2.52,0.72,3.24,13.8,80.9,1019.22,0,0,0,0,0.027008
2018/06/05 01:00:00.002,n,155,2.16,1.44,2.16,13.8,80.9,1019.22,0,0,0,0,0.026131
2018/06/05 01:01:00.000,n,187,1.44,1.08,1.8,13.8,80.9,1019.22,0,0,0,0,0.026131
2018/06/05 01:02:00.013,n,160,2.88,2.52,3.24,13.8,81.1,1019.22,0,0,0,0,0.034828
2018/06/05 01:03:00.011,n,167,2.88,2.52,2.88,13.8,81.2,1019.22,0,0,0,0,0.027847
2018/06/05 01:04:00.000,n,230,2.52,2.52,2.88,13.8,81.2,1019.22,0,0,0,0,0.026131
2018/06/05 01:05:00.000,n,186,2.52,2.16,2.88,13.7,81.2,1019.22,0,0,0,0,0.027008
2018/06/05 01:06:00.002,n,166,3.24,2.52,3.6,13.7,81.3,1019.22,0,0,0,0,0.023499
2018/06/05 01:07:00.000,n,157,2.16,1.44,2.52,13.7,81.3,1019.22,0,0,0,0,0.026131
2018/06/05 01:08:00.000,n,231,3.96,3.6,4.68,13.7,81.4,1019.22,0,0,0,0,0.022621
2018/06/05 01:09:00.009,n,154,3.24,1.44,4.32,13.7,81.5,1019.22,0,0,0,0,0.032234
2018/06/05 01:10:00.006,n,173,5.4,4.32,6.84,13.7,81.4,1019.22,0,0,0,0,0.026131
2018/06/05 01:11:00.004,n,164,1.8,0.72,3.6,13.7,81.4,1019.22,0,0,0,0,0.029602
2018/06/05 01:12:00.001,n,136,1.44,0.72,2.88,13.7,81.4,1019.22,0,0,0,0,0.024414
2018/06/05 01:13:00.000,n,180,2.88,2.52,3.24,13.6,81.6,1019.22,0,0,0,0,0.024414
2018/06/05 01:14:00.000,n,247,1.44,1.08,1.8,13.6,81.6,1019.22,0,0,0,0,0.024414
2018/06/05 01:15:00.000,n,227,2.52,1.8,2.88,13.6,81.7,1019.22,0,0,0,0,0.030479
2018/06/05 01:16:00.006,n,201,6.48,4.32,7.92,13.6,81.8,1019.22,0,0,0,0,0.024414
2018/06/05 01:17:00.004,n,203,1.44,0.36,2.88,13.6,81.8,1019.22,0,0,0,0,0.024414
2018/06/05 01:18:00.001,n,171,3.24,2.52,3.96,13.6,81.8,1019.22,0,0,0,0,0.020905
2018/06/05 01:19:00.000,n,194,0.72,0.36,1.44,13.6,81.9,1019.22,0,0,0,0,0.020905
2018/06/05 01:20:00.012,n,189,1.44,0.72,2.52,13.6,81.9,1019.22,0,0,0,0,0.023499
2018/06/05 01:21:00.010,n,218,1.08,0,2.16,13.5,82.1,1019.22,0,0,0,0,0.020065
2018/06/05 01:22:00.000,n,162,5.4,3.96,6.48,13.6,82,1019.22,0,0,0,0,0.027008
2018/06/05 01:23:00.000,n,158,5.04,4.68,5.4,13.5,82,1019.22,0,0,0,0,0.030479
2018/06/05 01:24:00.000,n,250,4.68,4.32,5.4,13.5,82,1019.22,0,0,0,0,0.024414
2018/06/05 01:25:00.000,n,245,3.6,3.24,3.6,13.5,82.1,1019.22,0,0,0,0,0.023499
2018/06/05 01:26:00.000,n,248,2.88,2.52,3.24,13.5,82.1,1019.22,0,0,0,0,0.020065
2018/06/05 01:27:00.008,n,187,4.68,3.96,5.04,13.5,82.1,1019.22,0,0,0,0,0.027008
2018/06/05 01:28:00.005,n,160,5.76,4.68,6.48,13.5,82.2,1019.22,0,0,0,0,0.025291
2018/06/05 01:29:00.001,n,211,3.24,2.52,4.32,13.5,82.1,1019.22,0,0,0,0,0.028725
2018/06/05 01:30:00.015,n,265,4.68,3.96,5.4,13.5,82.2,1019.22,0,0,0,0,0.030518
2018/06/05 01:31:00.000,n,255,2.88,2.52,3.6,13.5,82.3,1019.22,0,0,0,0,0.02964
2018/06/05 01:32:00.000,n,132,2.52,1.44,5.04,13.4,82.3,1019.22,0,0,0,0,0.032234
2018/06/05 01:33:00.000,n,155,4.68,4.32,5.04,13.4,82.3,1019.22,0,0,0,0,0.02964
2018/06/05 01:34:00.004,n,197,4.32,3.6,5.04,13.4,82.4,1019.22,0,0,0,0,0.027885
2018/06/05 01:35:00.001,n,259,3.6,2.52,4.32,13.4,82.6,1019.22,0,0,0,0,0.027008
2018/06/05 01:36:00.000,n,239,2.52,1.8,2.88,13.5,82.9,1019.22,0,0,0,0,0.033989
2018/06/05 01:37:00.011,n,159,2.52,1.8,2.88,13.5,82.6,1019.22,0,0,0,0,0.033989
2018/06/05 01:38:00.009,n,259,1.08,0.36,2.52,13.5,82.5,1019.22,0,0,0,0,0.03746
2018/06/05 01:39:00.007,n,207,2.16,1.44,2.88,13.5,82.6,1019.22,0,0,0,0,0.028725
2018/06/05 01:40:00.000,n,122,2.16,1.8,2.16,13.4,82.5,1019.22,0,0,0,0,0.027885
2018/06/05 01:41:00.001,n,157,4.68,4.32,5.04,13.4,82.4,1019.32,0,0,0,0,0.035706
2018/06/05 01:42:00.000,n,189,5.4,5.04,5.76,13.4,82.4,1019.22,0,0,0,0,0.027008
2018/06/05 01:43:00.000,n,180,3.96,3.6,4.32,13.4,82.4,1019.22,0,0,0,0,0.027885
2018/06/05 01:44:00.000,n,252,2.88,2.52,3.6,13.4,82.6,1019.22,0,0,0,0,0.027008
2018/06/05 01:45:00.007,n,275,2.52,2.16,3.24,13.4,82.6,1019.22,0,0,0,0,0.027008
2018/06/05 01:46:00.005,n,182,3.96,3.6,4.32,13.4,82.7,1019.22,0,0,0,0,0.027008
2018/06/05 01:47:00.002,n,148,1.08,0.72,2.16,13.4,82.6,1019.22,0,0,0,0,0.027008
2018/06/05 01:48:00.015,n,201,3.6,1.08,5.76,13.4,82.6,1019.22,0,0,0,0,0.027885
2018/06/05 01:49:00.000,n,287,3.6,2.88,4.68,13.4,82.6,1019.22,0,0,0,0,0.026131
2018/06/05 01:50:00.000,n,174,3.24,2.88,3.6,13.4,82.5,1019.32,0,0,0,0,0.033073
2018/06/05 01:51:00.000,n,146,5.04,3.24,6.84,13.3,82.5,1019.22,0,0,0,0,0.025291
2018/06/05 01:52:00.005,n,249,0.36,0.36,0.72,13.3,82.5,1019.22,0,0,0,0,0.025291
2018/06/05 01:53:00.003,n,148,1.44,1.44,1.8,13.3,82.5,1019.32,0,0,0,0,0.024376
2018/06/05 01:54:00.000,n,160,3.96,3.24,5.04,13.3,82.5,1019.32,0,0,0,0,0.023537
2018/06/05 01:55:00.000,n,151,1.08,0.36,1.44,13.3,82.5,1019.22,0,0,0,0,0.024376
2018/06/05 01:56:00.011,n,286,3.6,2.16,4.68,13.3,82.5,1019.22,0,0,0,0,0.023537
2018/06/05 01:57:00.008,n,246,5.4,5.04,5.4,13.3,82.4,1019.22,0,0,0,0,0.024376
2018/06/05 01:58:00.000,n,271,7.92,6.84,9,13.3,82.4,1019.22,0,0,0,0,0.030518
2018/06/05 01:59:00.002,n,155,1.44,1.08,1.8,13.3,82.4,1019.22,0,0,0,0,0.025291
2018/06/05 02:00:00.000,n,205,1.44,1.44,1.8,13.2,82.5,1019.22,0,0,0,0,0.023537
2018/06/05 02:01:00.000,n,269,2.88,2.52,3.96,13.2,82.5,1019.22,0,0,0,0,0.023537
2018/06/05 02:02:00.000,n,291,2.16,1.08,3.24,13.2,82.7,1019.22,0,0,0,0,0.025291
2018/06/05 02:03:00.009,n,263,5.76,5.4,6.12,13.2,82.7,1019.22,0,0,0,0,0.023537
2018/06/05 02:04:00.006,n,313,4.32,2.16,6.12,13.2,82.5,1019.22,0,0,0,0,0.025291
2018/06/05 02:05:00.004,n,248,2.16,2.16,2.16,13.2,82.5,1019.32,0,0,0,0,0.027008
2018/06/05 02:06:00.001,n,262,1.44,1.08,1.8,13.2,82.6,1019.32,0,0,0,0,0.032234
2018/06/05 02:07:00.000,n,252,2.52,2.52,3.24,13.2,82.9,1019.32,0,0,0,0,0.024376
2018/06/05 02:08:00.000,n,269,5.4,5.04,5.76,13.3,82.8,1019.32,0,0,0,0,0.022659
2018/06/05 02:09:00.000,n,265,3.6,3.24,4.68,13.3,82.7,1019.32,0,0,0,0,0.022659
2018/06/05 02:10:00.006,n,270,5.76,5.04,7.2,13.2,82.7,1019.32,0,0,0,0,0.023537
2018/06/05 02:11:00.004,n,264,5.4,5.04,5.76,13.2,82.7,1019.32,0,0,0,0,0.027885
2018/06/05 02:12:00.001,n,248,7.56,6.84,8.28,13.2,82.6,1019.32,0,0,0,0,0.030479
2018/06/05 02:13:00.000,n,271,4.68,4.32,5.04,13.2,82.6,1019.32,0,0,0,0,0.034828
2018/06/05 02:14:00.012,n,236,4.68,3.96,5.04,13.2,82.6,1019.32,0,0,0,0,0.031357
2018/06/05 02:15:00.009,n,267,2.52,1.44,3.24,13.2,82.6,1019.22,0,0,0,0,0.033112
2018/06/05 02:16:00.000,n,273,3.6,3.24,4.68,13.2,82.9,1019.22,0,0,0,0,0.034828
2018/06/05 02:17:00.000,n,156,3.24,2.52,5.04,13.2,82.8,1019.22,0,0,0,0,0.032196
2018/06/05 02:18:00.000,n,259,3.96,2.88,4.32,13.2,82.6,1019.22,0,0,0,0,0.032196
2018/06/05 02:19:00.000,n,290,4.68,3.96,5.76,13.2,82.5,1019.22,0,0,0,0,0.031357
2018/06/05 02:20:00.000,n,279,1.08,0.36,1.8,13.2,82.6,1019.22,0,0,0,0,0.031357
2018/06/05 02:21:00.009,n,270,3.96,3.24,4.32,13.2,82.6,1019.22,0,0,0,0,0.033989
2018/06/05 02:22:00.006,n,254,2.52,2.52,2.88,13.1,82.6,1019.22,0,0,0,0,0.032196
2018/06/05 02:23:00.005,n,281,2.52,2.16,3.24,13.1,82.9,1019.12,0,0,0,0,0.028763
2018/06/05 02:24:00.002,n,256,3.6,2.16,5.76,13.2,82.7,1019.22,0,0,0,0,0.034828
2018/06/05 02:25:00.000,n,234,3.24,2.88,3.96,13.2,82.6,1019.12,0,0,0,0,0.030479
2018/06/05 02:26:00.000,n,141,1.08,0.72,1.44,13.1,82.6,1019.12,0,0,0,0,0.040054
2018/06/05 02:27:00.000,n,259,1.8,1.08,2.88,13.1,82.6,1019.12,0,0,0,0,0.034828
2018/06/05 02:28:00.006,n,256,4.68,3.6,6.12,13.1,82.7,1019.12,0,0,0,0,0.033989
2018/06/05 02:29:00.004,n,264,8.28,7.56,8.28,13.1,82.6,1019.12,0,0,0,0,0.033112
2018/06/05 02:30:00.000,n,257,5.76,3.96,7.2,13.1,82.5,1019.22,0,0,0,0,0.034828
2018/06/05 02:31:00.000,n,267,6.84,6.12,7.56,13.1,82.5,1019.22,0,0,0,0,0.032196
2018/06/05 02:32:00.011,n,263,4.68,3.24,6.48,13.1,82.5,1019.22,0,0,0,0,0.033989
2018/06/05 02:33:00.010,n,279,2.52,2.16,3.6,13.1,82.6,1019.22,0,0,0,0,0.033989
2018/06/05 02:34:00.000,n,254,3.24,2.88,3.6,13.1,82.7,1019.22,0,0,0,0,0.030479
2018/06/05 02:35:00.002,n,258,1.44,1.44,1.8,13.1,82.9,1019.22,0,0,0,0,0.03746
2018/06/05 02:36:00.000,n,233,1.44,1.08,1.44,13.1,82.9,1019.32,0,0,0,0,0.030479
2018/06/05 02:37:00.000,n,18,0.72,0.72,1.08,13.1,82.7,1019.32,0,0,0,0,0.032196
2018/06/05 02:38:00.000,n,245,3.6,2.88,3.96,13.1,82.8,1019.32,0,0,0,0,0.029602
2018/06/05 02:39:00.007,n,264,3.24,2.52,3.96,13.1,82.9,1019.32,0,0,0,0,0.033989
2018/06/05 02:40:00.005,n,100,0.36,0,1.08,13.1,82.9,1019.32,0,0,0,0,0.030479
2018/06/05 02:41:00.001,n,122,2.16,1.8,2.52,13.1,82.8,1019.32,0,0,0,0,0.028763
2018/06/05 02:42:00.015,n,189,2.52,2.52,2.88,13.1,82.8,1019.32,0,0,0,0,0.029602
2018/06/05 02:43:00.000,n,202,1.8,1.44,1.8,13.1,82.8,1019.32,0,0,0,0,0.028763
2018/06/05 02:44:00.000,n,161,2.88,2.52,2.88,13.1,82.9,1019.32,0,0,0,0,0.028763
2018/06/05 02:45:00.000,n,210,1.08,0.72,1.44,13.1,82.9,1019.32,0,0,0,0,0.031357
2018/06/05 02:46:00.006,n,147,2.16,2.16,2.52,13.1,82.9,1019.42,0,0,0,0,0.031357
2018/06/05 02:47:00.003,n,257,2.16,1.44,2.88,13.1,82.9,1019.42,0,0,0,0,0.028763
2018/06/05 02:48:00.000,n,190,1.08,0.36,2.52,13.1,82.9,1019.42,0,0,0,0,0.028763
2018/06/05 02:49:00.000,n,176,1.44,1.08,1.8,13,82.9,1019.42,0,0,0,0,0.024414
2018/06/05 02:50:00.011,n,114,1.44,1.08,2.52,13,83,1019.42,0,0,0,0,0.027008
2018/06/05 02:51:00.009,n,280,1.08,0.36,1.08,13,82.8,1019.42,0,0,0,0,0.030479
2018/06/05 02:52:00.000,n,231,1.08,0.72,1.44,13,82.9,1019.42,0,0,0,0,0.030479
2018/06/05 02:53:00.002,n,254,2.16,1.8,2.88,13,83,1019.42,0,0,0,0,0.023499
2018/06/05 02:54:00.000,n,244,2.88,1.8,5.04,13,83.2,1019.42,0,0,0,0,0.027847
2018/06/05 02:55:00.000,n,222,0.72,0.36,1.44,13,83.1,1019.42,0,0,0,0,0.027008
2018/06/05 02:56:00.000,n,248,1.44,0.72,2.16,13,83,1019.42,0,0,0,0,0.028763
2018/06/05 02:57:00.007,n,174,0.36,0.36,1.08,13,83,1019.42,0,0,0,0,0.027008
2018/06/05 02:58:00.004,n,121,0.72,0,1.44,13,83,1019.42,0,0,0,0,0.023499
2018/06/05 02:59:00.001,n,203,0.72,0.36,0.72,13,82.9,1019.42,0,0,0,0,0.024414
2018/06/05 03:00:00.015,n,244,2.52,1.44,3.96,13,83,1019.32,0,0,0,0,0.025253
2018/06/05 03:01:00.000,n,268,1.44,1.08,2.52,13,83,1019.32,0,0,0,0,0.025253
2018/06/05 03:02:00.000,n,342,2.88,2.16,3.24,13,83.3,1019.32,0,0,0,0,0.025253
2018/06/05 03:03:00.000,n,266,0.36,0,0.36,13,83,1019.32,0,0,0,0,0.025253
2018/06/05 03:04:00.003,n,289,1.8,1.08,2.88,12.9,83,1019.32,0,0,0,0,0.027847
2018/06/05 03:05:00.001,n,200,2.52,2.16,2.88,12.9,83,1019.42,0,0,0,0,0.027847
2018/06/05 03:06:00.000,n,184,3.96,1.8,6.84,12.9,83,1019.42,0,0,0,0,0.023499
2018/06/05 03:07:00.011,n,221,1.08,0.36,2.16,12.9,83,1019.42,0,0,0,0,0.025253
2018/06/05 03:08:00.008,n,156,2.88,2.16,3.24,12.9,83,1019.42,0,0,0,0,0.030479
2018/06/05 03:09:00.004,n,236,2.88,1.08,3.96,12.9,83.2,1019.42,0,0,0,0,0.024414
2018/06/05 03:10:00.002,n,257,2.52,2.16,2.88,12.9,83.2,1019.42,0,0,0,0,0.022659
2018/06/05 03:11:00.000,n,260,3.24,3.24,3.6,12.9,83.1,1019.42,0,0,0,0,0.024414
2018/06/05 03:12:00.000,n,178,2.16,1.44,3.6,12.9,83.5,1019.42,0,0,0,0,0.022659
2018/06/05 03:13:00.000,n,247,3.24,2.88,3.6,12.9,83.1,1019.52,0,0,0,0,0.027008
2018/06/05 03:14:00.007,n,263,6.12,5.76,6.84,12.9,83.1,1019.52,0,0,0,0,0.022659
2018/06/05 03:15:00.006,n,275,1.8,1.44,2.52,12.9,83,1019.52,0,0,0,0,0.020027
2018/06/05 03:16:00.003,n,283,3.96,2.88,4.32,12.8,83.1,1019.52,0,0,0,0,0.026131
2018/06/05 03:17:00.000,n,285,2.52,2.16,2.88,12.8,83.2,1019.52,0,0,0,0,0.031319
2018/06/05 03:18:00.013,n,252,2.88,2.52,3.24,12.8,83.4,1019.52,0,0,0,0,0.030479
2018/06/05 03:19:00.000,n,309,0.36,0,0.72,12.8,83.3,1019.52,0,0,0,0,0.032234
2018/06/05 03:20:00.000,n,224,2.88,2.16,2.88,12.8,83.3,1019.52,0,0,0,0,0.028725
2018/06/05 03:21:00.004,n,327,1.8,0.36,2.52,12.8,83.5,1019.52,0,0,0,0,0.035706
2018/06/05 03:22:00.002,n,267,1.8,1.44,2.88,12.8,83.4,1019.52,0,0,0,0,0.033112
2018/06/05 03:23:00.000,n,196,0.72,0,1.08,12.8,83.4,1019.52,0,0,0,0,0.030479
2018/06/05 03:24:00.000,n,179,1.8,1.08,3.6,12.8,83.4,1019.52,0,0,0,0,0.026131
2018/06/05 03:25:00.008,n,169,1.8,0.72,2.52,12.8,83.4,1019.52,0,0,0,0,0.031319
2018/06/05 03:26:00.006,n,201,5.04,3.24,5.76,12.8,83.5,1019.52,0,0,0,0,0.031319
2018/06/05 03:27:00.003,n,150,2.16,1.8,2.16,12.8,83.5,1019.52,0,0,0,0,0.029602
2018/06/05 03:28:00.000,n,71,0.72,0,2.52,12.8,83.4,1019.52,0,0,0,0,0.032234
2018/06/05 03:29:00.000,n,245,2.88,2.52,3.6,12.8,83.4,1019.52,0,0,0,0,0.034828
2018/06/05 03:30:00.000,n,241,2.52,1.8,3.24,12.8,83.5,1019.52,0,0,0,0,0.030479
2018/06/05 03:31:00.006,n,261,3.6,2.88,4.32,12.8,83.4,1019.52,0,0,0,0,0.028725
2018/06/05 03:32:00.004,n,100,1.08,0.72,2.52,12.8,83.5,1019.42,0,0,0,0,0.024376
2018/06/05 03:33:00.000,n,291,4.68,3.6,5.76,12.7,83.6,1019.42,0,0,0,0,0.033951
2018/06/05 03:34:00.000,n,252,5.4,4.32,7.92,12.7,83.3,1019.42,0,0,0,0,0.026131
2018/06/05 03:35:00.013,n,277,4.68,3.96,5.4,12.7,83.3,1019.42,0,0,0,0,0.030479
2018/06/05 03:36:00.010,n,269,4.68,3.6,5.4,12.7,83.3,1019.42,0,0,0,0,0.030479
2018/06/05 03:37:00.000,n,262,2.88,2.16,4.32,12.7,83.4,1019.42,0,0,0,0,0.029602
2018/06/05 03:38:00.000,n,256,2.52,1.8,3.6,12.7,83.4,1019.42,0,0,0,0,0.031319
2018/06/05 03:39:00.000,n,302,5.4,3.96,6.48,12.7,83.7,1019.42,0,0,0,0,0.027847
2018/06/05 03:40:00.000,n,235,4.32,2.88,5.04,12.7,83.5,1019.42,0,0,0,0,0.026131
2018/06/05 03:41:00.000,n,282,6.12,5.76,6.84,12.7,83.4,1019.42,0,0,0,0,0.02697
2018/06/05 03:42:00.009,n,215,2.88,1.08,3.6,12.6,83.4,1019.42,0,0,0,0,0.022621
2018/06/05 03:43:00.007,n,272,5.76,5.04,6.48,12.6,83.4,1019.42,0,0,0,0,0.026131
2018/06/05 03:44:00.004,n,207,1.8,1.08,2.88,12.6,83.5,1019.42,0,0,0,0,0.02697
2018/06/05 03:45:00.002,n,229,2.88,1.44,3.96,12.6,83.4,1019.52,0,0,0,0,0.031319
2018/06/05 03:46:00.000,n,267,3.6,3.6,3.96,12.6,83.4,1019.52,0,0,0,0,0.032234
2018/06/05 03:47:00.000,n,235,2.16,1.44,3.6,12.6,83.5,1019.52,0,0,0,0,0.02697
2018/06/05 03:48:00.000,n,258,3.96,3.24,5.04,12.6,83.5,1019.52,0,0,0,0,0.022621
2018/06/05 03:49:00.006,n,261,3.6,2.52,3.96,12.6,83.4,1019.52,0,0,0,0,0.025253
2018/06/05 03:50:00.003,n,234,0.36,0.36,0.36,12.6,83.4,1019.62,0,0,0,0,0.024376
2018/06/05 03:51:00.000,n,160,3.6,1.8,4.68,12.6,83.4,1019.62,0,0,0,0,0.022621
2018/06/05 03:52:00.000,n,176,3.24,2.52,3.6,12.6,83.5,1019.62,0,0,0,0,0.022621
2018/06/05 03:53:00.012,n,184,3.96,2.88,5.04,12.7,83.5,1019.62,0,0,0,0,0.020905
2018/06/05 03:54:00.010,n,187,3.96,3.6,4.32,12.7,83.4,1019.62,0,0,0,0,0.024376
2018/06/05 03:55:00.000,n,183,1.44,0.36,2.16,12.7,83.2,1019.62,0,0,0,0,0.027847
2018/06/05 03:56:00.002,n,166,5.04,3.6,6.84,12.7,83.1,1019.62,0,0,0,0,0.02697
2018/06/05 03:57:00.000,n,186,5.76,5.4,6.48,12.7,83,1019.62,0,0,0,0,0.018272
2018/06/05 03:58:00.000,n,169,3.6,3.24,3.96,12.7,83,1019.62,0,0,0,0,0.021782
2018/06/05 03:59:00.000,n,157,5.04,3.96,6.48,12.6,83.1,1019.62,0,0,0,0,0.018272
2018/06/05 04:00:00.006,n,160,5.4,4.68,5.76,12.6,83.1,1019.72,0,0,0,0,0.021782
2018/06/05 04:01:00.004,n,164,7.56,6.48,9,12.6,83.2,1019.62,0,0,0,0,0.02697
2018/06/05 04:02:00.000,n,168,6.12,5.4,6.84,12.6,83.2,1019.72,0,0,0,0,0.024376
2018/06/05 04:03:00.014,n,160,2.52,0.36,3.6,12.6,83.2,1019.62,0,0,0,0,0.018272
2018/06/05 04:04:00.000,n,140,3.96,3.6,4.32,12.6,83.3,1019.72,0,0,0,0,0.020905
2018/06/05 04:05:00.000,n,168,5.76,5.4,6.48,12.5,83.3,1019.72,0,0,0,0,0.021782
2018/06/05 04:06:00.000,n,152,4.32,2.88,5.04,12.5,83.3,1019.72,0,0,0,0,0.022621
2018/06/05 04:07:00.003,n,178,6.48,5.76,7.2,12.5,83.3,1019.72,0,0,0,0,0.020027
2018/06/05 04:08:00.001,n,166,6.84,6.48,7.2,12.5,83.3,1019.72,0,0,0,0,0.018272
2018/06/05 04:09:00.000,n,176,6.12,5.4,6.48,12.5,83.4,1019.72,0,0,0,0,0.021782
2018/06/05 04:10:00.010,n,185,2.88,2.52,3.96,12.5,83.4,1019.72,0,0,0,0,0.025253
2018/06/05 04:11:00.008,n,168,7.56,6.84,7.92,12.5,83.3,1019.72,0,0,0,0,0.021782
2018/06/05 04:12:00.005,n,167,4.32,2.16,5.76,12.5,83.3,1019.72,0,0,0,0,0.023499
2018/06/05 04:13:00.000,n,151,5.4,5.04,5.76,12.5,83.4,1019.72,0,0,0,0,0.01915
2018/06/05 04:14:00.000,n,157,4.32,2.16,5.04,12.4,83.3,1019.72,0,0,0,0,0.026131
2018/06/05 04:15:00.000,n,160,5.4,3.96,6.12,12.4,83.4,1019.72,0,0,0,0,0.026131
2018/06/05 04:16:00.000,n,173,7.2,6.12,7.92,12.5,83.3,1019.82,0,0,0,0,0.020905
2018/06/05 04:17:00.000,n,171,5.04,4.32,5.76,12.4,83.3,1019.82,0,0,0,0,0.020027
2018/06/05 04:18:00.006,n,213,3.24,1.8,4.32,12.4,83.3,1019.82,0,0,0,0,0.022621
2018/06/05 04:19:00.003,n,170,4.68,4.32,5.04,12.5,83.2,1019.72,0,0,0,0,0.021782
2018/06/05 04:20:00.000,n,287,2.52,0.72,3.24,12.4,83.3,1019.72,0,0,0,0,0.021782
2018/06/05 04:21:00.013,n,223,1.08,0.72,1.44,12.5,83.6,1019.72,0,0,0,0,0.020905
2018/06/05 04:22:00.000,n,219,2.16,1.08,2.52,12.5,83.3,1019.72,0,0,0,0,0.020905
2018/06/05 04:23:00.000,n,230,1.8,1.44,2.88,12.5,83.3,1019.72,0,0,0,0,0.018272
2018/06/05 04:24:00.000,n,190,3.24,2.16,3.96,12.5,83.4,1019.82,0,0,0,0,0.027885
2018/06/05 04:25:00.000,n,156,4.68,2.88,6.12,12.5,83.2,1019.82,0,0,0,0,0.024376
2018/06/05 04:26:00.000,n,260,3.6,3.24,3.96,12.5,83.1,1019.82,0,0,0,0,0.027008
2018/06/05 04:27:00.000,n,234,1.8,1.08,2.52,12.5,83.1,1019.82,0,0,0,0,0.027008
2018/06/05 04:28:00.010,n,159,2.16,1.08,3.24,12.5,83,1019.82,0,0,0,0,0.027008
2018/06/05 04:29:00.007,n,109,2.16,1.44,2.88,12.5,83.1,1019.82,0,0,0,0,0.022621
2018/06/05 04:30:00.004,n,197,3.6,3.24,3.96,12.5,83.1,1019.92,0,0,0,0,0.025253
2018/06/05 04:31:00.001,n,163,5.4,5.04,5.4,12.5,83,1019.92,0,0,0,0,0.031357
2018/06/05 04:32:00.000,n,167,3.6,2.88,3.96,12.5,82.9,1019.92,0,0,0,0,0.032234
2018/06/05 04:33:00.000,n,175,5.4,5.04,5.4,12.5,82.9,1019.82,0,0,0,0,0.040932
2018/06/05 04:34:00.005,n,179,5.04,4.32,5.04,12.5,82.9,1019.82,0,0,0,0,0.038338
2018/06/05 04:35:00.003,n,263,3.6,1.8,4.32,12.5,82.9,1019.82,0,0,0,0,0.035706
2018/06/05 04:36:00.000,n,226,1.08,0.36,2.16,12.5,83,1019.82,0,0,0,0,0.037422
2018/06/05 04:37:00.013,n,241,2.52,2.16,3.24,12.5,82.8,1019.82,0,0,0,0,0.029602
2018/06/05 04:38:00.011,n,202,2.88,1.8,3.6,12.5,82.7,1019.82,0,0,0,0,0.037422
2018/06/05 04:39:00.008,n,130,0.72,0.36,1.08,12.5,82.9,1019.82,0,0,0,0,0.033989
2018/06/05 04:40:00.000,n,113,1.44,0.72,1.44,12.5,82.8,1019.82,0,0,0,0,0.036583
2018/06/05 04:41:00.001,n,297,0.36,0.36,0.72,12.5,82.8,1019.82,0,0,0,0,0.027847
2018/06/05 04:42:00.000,n,262,3.96,3.6,4.32,12.5,82.8,1019.82,0,0,0,0,0.029602
2018/06/05 04:43:00.000,n,269,2.88,2.16,3.24,12.5,82.9,1019.92,0,0,0,0,0.039177
2018/06/05 04:44:00.000,n,265,3.24,3.24,3.24,12.5,82.9,1019.92,0,0,0,0,0.029602
2018/06/05 04:45:00.007,n,219,1.44,0.36,2.16,12.5,82.7,1019.92,0,0,0,0,0.029602
2018/06/05 04:46:00.004,n,253,2.88,2.52,3.6,12.5,82.6,1019.92,0,0,0,0,0.030479
2018/06/05 04:47:00.001,n,155,1.8,1.44,2.16,12.4,82.7,1019.92,0,0,0,0,0.029602
2018/06/05 04:48:00.015,n,250,1.08,0.36,1.08,12.4,82.9,1019.92,0,0,0,0,0.032234
2018/06/05 04:49:00.000,n,242,1.44,1.44,1.8,12.4,82.9,1020.02,0,0,0,0,0.030479
2018/06/05 04:50:00.000,n,250,1.08,1.08,1.44,12.4,83.1,1020.02,0,0,0,0,0.035706
2018/06/05 04:51:00.000,n,258,1.8,1.08,2.16,12.5,83,1019.92,0,0,0,0,0.033073
2018/06/05 04:52:00.004,n,298,1.08,0.72,1.44,12.5,82.9,1019.92,0,0,0,0,0.029602
2018/06/05 04:53:00.001,n,271,2.88,2.16,3.6,12.4,82.8,1019.92,0,0,0,0,0.037422
2018/06/05 04:54:00.000,n,263,2.16,1.8,2.52,12.4,82.8,1019.92,0,0,0,0,0.032234
2018/06/05 04:55:00.011,n,263,6.84,5.4,7.2,12.4,82.9,1019.92,0,0,0,0,0.029602